Regional Weather Roundup
Issued by NWS

Home | Current Version | Previous Version | Text Only | Print | Product List | Glossary On
Versions: 1 2 3 4 5 6 7 8 9 10 11 12 13 14 15 16 17 18 19 20 21 22 23 24 25 26 27 28 29 30 31 32 33 34 35 36 37 38 39 40 41 42 43 44 45 46 47 48 49 50
000
ASUS43 KLSX 171657
RWRMO

WEATHER SUMMARY FOR MISSOURI
NATIONAL WEATHER SERVICE SPRINGFIELD MO
1100 AM CST SAT FEB 17 2018

NOTE: "FAIR" INDICATES FEW OR NO CLOUDS BELOW 12,000 FEET WITH NO
       SIGNIFICANT WEATHER AND/OR OBSTRUCTIONS TO VISIBILITY.
       CURRENT SKY AND/OR WEATHER CONDITIONS ARE NOT AVAILABLE FOR
       CHILLICOTHE AND FARMINGTON.

MOZ001>031-035>038-043-044-053-054-171800-
...NORTHERN AND WESTERN MISSOURI...

CITY           SKY/WX    TMP DP  RH WIND       PRES   REMARKS
KANSAS CTY INT MOSUNNY   43  33  68 W14       30.00R
LEE`S SUMMIT   PTSUNNY   42  38  85 W15       30.02R
ST JOSEPH      SUNNY     45  24  43 NW20G26   30.00R
CHILLICOTHE      N/A     37  34  89 SW9       30.01R

$$
MOZ066>068-077>081-088>096-101>105-171800-
...SOUTHWEST MISSOURI...

CITY           SKY/WX    TMP DP  RH WIND       PRES   REMARKS
SPRINGFIELD    CLOUDY    40  39  97 SW7       30.05R FOG
JOPLIN         CLOUDY    40  40 100 W13       30.09R
BRANSON        CLOUDY    39  39 100 CALM      30.07R FOG

$$
MOZ032>034-039>042-045>050-055>058-069>072-171800-
...CENTRAL MISSOURI...

CITY           SKY/WX    TMP DP  RH WIND       PRES   REMARKS
COLUMBIA       MIX PCPN  34  33  96 S12       30.02S FOG     WCI  25
JEFFERSON CITY CLOUDY    35  33  92 S6        30.05S FOG
ROLLA          MIX PCPN  34  34 100 S13       30.04S FOG     WCI  25
SEDALIA        CLOUDY    37  37 100 SW15      30.04R FOG     WCI  28
WARRENSBURG    CLOUDY    37  36  93 SW15      30.02S WCI  28
OSAGE BEACH    CLOUDY    36  36 100 S8        30.06R FOG     WCI  29

$$
MOZ051-052-059>065-171800-
...EAST CENTRAL MISSOURI...

CITY           SKY/WX    TMP DP  RH WIND       PRES   REMARKS
ST LOUIS INTL  LGT SNOW  34  33  96 S9        30.06F FOG     WCI  27

$$
MOZ072>076-082>087-097>100-106>115-171800-
...SOUTH CENTRAL AND SOUTHEAST MISSOURI...

CITY           SKY/WX    TMP DP  RH WIND       PRES   REMARKS
CAPE GIRARDEAU LGT RAIN  36  34  92 E3        30.08F FOG
POPLAR BLUFF   LGT RAIN  39  37  92 S5        30.09R FOG
WEST PLAINS    MIX PCPN  37  35  92 W5        30.09R FOG

$$



USA.gov is the U.S. government's official web portal to all federal, state and local government web resources and services.